Observations for Trim Market St
| Time | AQI | Temp °C | Hum % | Pres Pa | CO μg/m³ | H₂S μg/m³ | NO μg/m³ | NO₂ μg/m³ | O₃ μg/m³ | SO₂ μg/m³ | PM1 μg/m³ | PM2.5 μg/m³ | PM10 μg/m³ |
|---|---|---|---|---|---|---|---|---|---|---|---|---|---|
| Friday 21 August 2026 | |||||||||||||
| 13:37 | 2 | 33.6 | 27 | 66,204 | 0.07 | 0 | 1.2 | 28.27 | 94.14 | 0 | 0 | 2.89 | 3.18 |
| 13:36 | 2 | 33.4 | 27 | 66,178 | 0.06 | 0 | 1.22 | 32.31 | 97.45 | 0 | 0 | 2.88 | 3.16 |
| 13:35 | 2 | 33.1 | 28 | 66,175 | 0 | 0 | 1.22 | 33.67 | 97.61 | 0 | 0 | 2.87 | 3.16 |
| 13:34 | 2 | 32.9 | 28 | 66,151 | 0 | 0 | 1.31 | 26.31 | 91 | 0 | 0 | 2.86 | 3.15 |
| 13:33 | 2 | 32.6 | 28 | 66,149 | 0.17 | 0 | 1.26 | 25.93 | 95.52 | 0 | 0 | 2.85 | 3.14 |
| 13:32 | 2 | 32.4 | 28 | 66,117 | 0 | 0 | 1.26 | 20.1 | 78.27 | 0 | 0 | 2.84 | 3.13 |
| 13:31 | 2 | 32.2 | 29 | 66,109 | 0 | 0 | 1.27 | 38.76 | 106.46 | 0 | 0 | 2.83 | 3.11 |
| 13:30 | 2 | 31.9 | 29 | 66,100 | 0 | 0 | 1.27 | 15.03 | 78.85 | 0 | 0 | 2.81 | 3.09 |
| 13:29 | 2 | 31.7 | 29 | 66,096 | 0 | 0 | 1.23 | 33.42 | 106.38 | 0 | 0 | 2.8 | 3.08 |
| 13:28 | 2 | 31.5 | 30 | 66,056 | 0 | 0 | 1.26 | 17.93 | 76.35 | 0 | 0 | 2.77 | 3.04 |
| 13:26 | 2 | 30.9 | 31 | 66,041 | 0 | 0 | 1.27 | 17.09 | 77.1 | 0 | 0 | 2.73 | 3 |
| 13:20 | 2 | 30.1 | 30 | 66,050 | 0 | 0 | 1.2 | 18.55 | 81.54 | 0 | 0 | 2.78 | 3.06 |
| 13:15 | 2 | 31 | 29 | 66,058 | 0.03 | 0 | 1.15 | 15.32 | 74.23 | 0 | 0 | 2.81 | 3.09 |
| 13:14 | 2 | 31.2 | 29 | 66,058 | 0.28 | 0 | 1.15 | 21.68 | 85.33 | 0 | 0 | 2.83 | 3.11 |
| 13:11 | 2 | 31.8 | 28 | 66,070 | 0 | 0 | 1.23 | 26.47 | 86.69 | 0 | 0 | 2.83 | 3.11 |
| 13:10 | 2 | 31.9 | 28 | 66,090 | 0 | 0 | 1.24 | 28.88 | 110 | 0 | 0 | 2.83 | 3.11 |
| 13:09 | 2 | 32 | 28 | 66,117 | 0.06 | 0 | 1.25 | 15.49 | 71.11 | 0 | 0 | 2.83 | 3.12 |
| 13:07 | 2 | 31.8 | 29 | 66,094 | 0 | 0 | 1.39 | 23.76 | 91.31 | 0 | 0 | 2.83 | 3.11 |
| 13:06 | 2 | 31.7 | 29 | 66,062 | 0 | 0 | 1.36 | 12.76 | 72.46 | 0 | 0 | 2.81 | 3.09 |
| 13:05 | 2 | 31.5 | 29 | 66,050 | 0 | 0 | 1.4 | 21.15 | 67.96 | 0 | 0 | 2.8 | 3.18 |